N281DF KLEX-KMKC

Flight info

Callsign N281DF
Flight time 2h 40m
Altitude 28000
Route CLEGG IIU HLV
Aircraft B60T/L-SDFGRY/C

Departure

Time 2026-04-29 21:20
Airport Blue Grass Airport (KLEX)

Arrival

Time 2026-04-30 00:00
Airport Charles B. Wheeler Downtown Airport (KMKC)
Time Latitude Longitude Altitude Speed Heading
2026-04-29 20:12 38.03816 -84.61281 1050 ft 0 kts 354°
2026-04-29 20:41 38.03819 -84.61281 1050 ft 3 kts 354°
2026-04-29 20:42 38.03831 -84.61276 1050 ft 0 kts 74°
2026-04-29 20:42 38.03830 -84.61280 1050 ft 3 kts 80°
2026-04-29 20:42 38.03830 -84.61286 1050 ft 0 kts 80°
2026-04-29 21:14 38.03830 -84.61281 1050 ft 4 kts 84°
2026-04-29 21:15 38.03838 -84.61200 1050 ft 11 kts 75°
2026-04-29 21:15 38.03875 -84.61124 1050 ft 10 kts 19°
2026-04-29 21:15 38.03920 -84.61097 1049 ft 8 kts 77°
2026-04-29 21:15 38.03928 -84.61020 1049 ft 10 kts 81°
2026-04-29 21:16 38.03937 -84.60928 1049 ft 11 kts 85°
2026-04-29 21:16 38.03943 -84.60832 1050 ft 11 kts 83°
2026-04-29 21:16 38.03953 -84.60736 1050 ft 12 kts 82°
2026-04-29 21:16 38.03964 -84.60627 1049 ft 13 kts 82°
2026-04-29 21:17 38.03915 -84.60549 1050 ft 13 kts 168°
2026-04-29 21:17 38.03864 -84.60512 1050 ft 0 kts 133°
2026-04-29 21:18 38.03864 -84.60511 1050 ft 1 kts 133°
2026-04-29 21:18 38.03846 -84.60487 1050 ft 7 kts 132°
2026-04-29 21:18 38.03805 -84.60428 1051 ft 10 kts 130°
2026-04-29 21:18 38.03758 -84.60401 1051 ft 2 kts 221°
2026-04-29 21:19 38.03722 -84.60443 1052 ft 36 kts 221°
2026-04-29 21:19 38.03314 -84.60901 1053 ft 115 kts 221°
2026-04-29 21:19 38.02618 -84.61653 1436 ft 143 kts 223°
2026-04-29 21:20 38.01781 -84.62459 2014 ft 161 kts 222°
2026-04-29 21:20 38.00873 -84.63357 2568 ft 169 kts 226°
2026-04-29 21:20 38.00203 -84.64556 3116 ft 167 kts 257°
2026-04-29 21:20 38.00198 -84.65979 3659 ft 163 kts 289°
2026-04-29 21:21 38.00796 -84.67167 4193 ft 162 kts 315°
2026-04-29 21:21 38.01601 -84.68175 4737 ft 163 kts 312°
2026-04-29 21:21 38.02394 -84.69215 5267 ft 165 kts 312°
2026-04-29 21:21 38.03197 -84.70255 5807 ft 165 kts 313°
2026-04-29 21:22 38.04005 -84.71299 6345 ft 166 kts 311°
2026-04-29 21:22 38.04809 -84.72338 6844 ft 164 kts 310°
2026-04-29 21:22 38.05604 -84.73368 7345 ft 163 kts 309°
2026-04-29 21:22 38.06401 -84.74402 7856 ft 164 kts 308°
2026-04-29 21:23 38.07194 -84.75429 8374 ft 163 kts 308°
2026-04-29 21:23 38.07984 -84.76454 8921 ft 162 kts 307°
2026-04-29 21:23 38.08773 -84.77477 9455 ft 162 kts 306°
2026-04-29 21:23 38.09560 -84.78498 9984 ft 161 kts 305°
2026-04-29 21:24 38.10344 -84.79515 10482 ft 161 kts 305°
2026-04-29 21:24 38.11122 -84.80523 10977 ft 159 kts 305°
2026-04-29 21:24 38.11889 -84.81518 11495 ft 156 kts 305°
2026-04-29 21:24 38.12630 -84.82480 12007 ft 153 kts 305°
2026-04-29 21:25 38.13365 -84.83435 12526 ft 149 kts 305°
2026-04-29 21:25 38.14083 -84.84370 13060 ft 146 kts 305°
2026-04-29 21:25 38.14786 -84.85282 13605 ft 143 kts 305°
2026-04-29 21:25 38.15471 -84.86174 14098 ft 139 kts 304°
2026-04-29 21:26 38.16137 -84.87039 14582 ft 135 kts 304°
2026-04-29 21:26 38.16789 -84.87890 15075 ft 134 kts 304°
2026-04-29 21:26 38.17434 -84.88728 15568 ft 131 kts 303°
2026-04-29 21:26 38.18065 -84.89549 16075 ft 128 kts 303°
2026-04-29 21:27 38.18428 -84.90115 16413 ft 120 kts 288°
2026-04-29 21:27 38.18442 -84.91446 17127 ft 113 kts 266°
2026-04-29 21:27 38.18326 -84.92456 17579 ft 120 kts 266°
2026-04-29 21:27 38.18197 -84.93547 17972 ft 129 kts 265°
2026-04-29 21:28 38.18060 -84.94707 18316 ft 139 kts 265°
2026-04-29 21:28 38.17910 -84.95961 18622 ft 147 kts 265°
2026-04-29 21:28 38.17753 -84.97268 18931 ft 152 kts 265°
2026-04-29 21:28 38.17591 -84.98612 19235 ft 155 kts 265°
2026-04-29 21:29 38.17427 -84.99980 19540 ft 158 kts 265°
2026-04-29 21:29 38.17259 -85.01374 19841 ft 160 kts 265°
2026-04-29 21:29 38.17091 -85.02779 20141 ft 161 kts 265°
2026-04-29 21:29 38.16920 -85.04192 20441 ft 162 kts 265°
2026-04-29 21:30 38.16750 -85.05607 20746 ft 162 kts 265°
2026-04-29 21:30 38.16579 -85.07020 21050 ft 162 kts 265°
2026-04-29 21:30 38.16409 -85.08433 21355 ft 161 kts 265°
2026-04-29 21:30 38.16296 -85.09366 21558 ft 161 kts 265°
2026-04-29 21:31 38.16126 -85.10773 21873 ft 161 kts 265°
2026-04-29 21:31 38.15956 -85.12175 22184 ft 160 kts 265°
2026-04-29 21:31 38.15787 -85.13573 22500 ft 160 kts 265°
2026-04-29 21:31 38.15618 -85.14966 22818 ft 159 kts 265°
2026-04-29 21:32 38.15449 -85.16356 23136 ft 159 kts 265°
2026-04-29 21:32 38.15281 -85.17737 23462 ft 158 kts 265°
2026-04-29 21:32 38.15114 -85.19105 23741 ft 156 kts 265°
2026-04-29 21:32 38.14949 -85.20470 24008 ft 156 kts 264°
2026-04-29 21:33 38.14784 -85.21824 24286 ft 155 kts 264°
2026-04-29 21:33 38.14619 -85.23171 24562 ft 153 kts 264°
2026-04-29 21:33 38.14457 -85.24501 24844 ft 152 kts 264°
2026-04-29 21:33 38.14297 -85.25805 25124 ft 150 kts 264°
2026-04-29 21:34 38.14137 -85.27114 25410 ft 149 kts 264°
2026-04-29 21:34 38.13979 -85.28405 25698 ft 147 kts 264°
2026-04-29 21:34 38.13823 -85.29681 25989 ft 145 kts 264°
2026-04-29 21:34 38.13668 -85.30942 26277 ft 143 kts 264°
2026-04-29 21:35 38.13515 -85.32181 26580 ft 141 kts 264°
2026-04-29 21:35 38.13365 -85.33403 26878 ft 139 kts 264°
2026-04-29 21:35 38.13217 -85.34606 27177 ft 137 kts 264°
2026-04-29 21:35 38.13072 -85.35788 27481 ft 135 kts 264°
2026-04-29 21:36 38.12928 -85.36952 27786 ft 132 kts 264°
2026-04-29 21:36 38.12786 -85.38116 27952 ft 137 kts 264°
2026-04-29 21:36 38.12633 -85.39357 27966 ft 146 kts 264°
2026-04-29 21:36 38.12472 -85.40661 27969 ft 152 kts 264°
2026-04-29 21:37 38.12305 -85.42012 27968 ft 157 kts 264°
2026-04-29 21:37 38.12135 -85.43383 27968 ft 161 kts 264°
2026-04-29 21:37 38.11960 -85.44795 27969 ft 163 kts 264°
2026-04-29 21:37 38.11781 -85.46232 27969 ft 166 kts 263°
2026-04-29 21:38 38.11600 -85.47686 27970 ft 167 kts 263°
2026-04-29 21:38 38.11418 -85.49152 27969 ft 169 kts 263°
2026-04-29 21:38 38.11234 -85.50630 27970 ft 170 kts 263°
2026-04-29 21:38 38.11049 -85.52115 27969 ft 171 kts 263°
2026-04-29 21:39 38.10863 -85.53608 27964 ft 172 kts 263°
2026-04-29 21:39 38.10676 -85.55110 27938 ft 173 kts 263°
2026-04-29 21:39 38.10487 -85.56617 27955 ft 174 kts 263°
2026-04-29 21:39 38.10406 -85.58147 27963 ft 176 kts 276°
2026-04-29 21:40 38.10697 -85.59681 27968 ft 180 kts 278°
2026-04-29 21:40 38.10992 -85.61238 27991 ft 183 kts 278°
2026-04-29 21:40 38.11283 -85.62822 27970 ft 184 kts 278°
2026-04-29 21:40 38.11574 -85.64410 27970 ft 185 kts 278°
2026-04-29 21:41 38.11864 -85.65987 27972 ft 186 kts 278°
2026-04-29 21:41 38.12158 -85.67588 27973 ft 186 kts 278°
2026-04-29 21:41 38.12453 -85.69194 27971 ft 187 kts 278°
2026-04-29 21:41 38.12749 -85.70805 27972 ft 187 kts 278°
2026-04-29 21:42 38.13044 -85.72416 27972 ft 187 kts 278°
2026-04-29 21:42 38.13339 -85.74028 27972 ft 187 kts 278°
2026-04-29 21:42 38.13634 -85.75641 27971 ft 187 kts 278°
2026-04-29 21:42 38.13929 -85.77258 27972 ft 187 kts 278°
2026-04-29 21:43 38.14224 -85.78871 27969 ft 188 kts 278°
2026-04-29 21:43 38.14518 -85.80485 27969 ft 188 kts 278°
2026-04-29 21:43 38.14813 -85.82102 27971 ft 188 kts 278°
2026-04-29 21:43 38.15104 -85.83698 27971 ft 188 kts 278°
2026-04-29 21:44 38.15398 -85.85317 27971 ft 188 kts 278°
2026-04-29 21:44 38.15693 -85.86936 27970 ft 188 kts 278°
2026-04-29 21:44 38.15987 -85.88554 27971 ft 188 kts 278°
2026-04-29 21:44 38.16280 -85.90172 27972 ft 188 kts 278°
2026-04-29 21:45 38.16574 -85.91790 27967 ft 187 kts 278°
2026-04-29 21:45 38.16866 -85.93403 27971 ft 187 kts 278°
2026-04-29 21:45 38.17159 -85.95019 27970 ft 188 kts 278°
2026-04-29 21:45 38.17451 -85.96637 27970 ft 188 kts 278°
2026-04-29 21:46 38.17745 -85.98258 27972 ft 188 kts 278°
2026-04-29 21:46 38.18037 -85.99878 27971 ft 188 kts 278°
2026-04-29 21:46 38.18330 -86.01501 27971 ft 188 kts 278°
2026-04-29 21:46 38.18619 -86.03106 27972 ft 188 kts 278°
2026-04-29 21:47 38.18912 -86.04730 27972 ft 188 kts 278°
2026-04-29 21:47 38.19204 -86.06351 27973 ft 188 kts 278°
2026-04-29 21:47 38.19496 -86.07976 27970 ft 188 kts 278°
2026-04-29 21:47 38.19788 -86.09601 27970 ft 188 kts 278°
2026-04-29 21:48 38.20080 -86.11225 27972 ft 188 kts 278°
2026-04-29 21:48 38.20371 -86.12844 27973 ft 188 kts 278°
2026-04-29 21:48 38.20661 -86.14465 27971 ft 188 kts 278°
2026-04-29 21:48 38.20951 -86.16086 27971 ft 188 kts 278°
2026-04-29 21:49 38.21238 -86.17686 27974 ft 188 kts 278°
2026-04-29 21:49 38.21527 -86.19306 27976 ft 188 kts 278°
2026-04-29 21:49 38.21816 -86.20926 27977 ft 188 kts 278°
2026-04-29 21:49 38.22105 -86.22545 27973 ft 188 kts 278°
2026-04-29 21:50 38.22394 -86.24162 27976 ft 188 kts 278°
2026-04-29 21:50 38.22683 -86.25783 27977 ft 188 kts 278°
2026-04-29 21:50 38.22971 -86.27404 27976 ft 188 kts 277°
2026-04-29 21:50 38.23261 -86.29029 27975 ft 188 kts 277°
2026-04-29 21:51 38.23548 -86.30652 27978 ft 188 kts 277°
2026-04-29 21:51 38.23838 -86.32280 27978 ft 188 kts 277°
2026-04-29 21:51 38.24415 -86.35530 27988 ft 188 kts 277°
2026-04-29 21:52 38.24702 -86.37155 27989 ft 188 kts 277°
2026-04-29 21:52 38.24990 -86.38779 27991 ft 188 kts 277°
2026-04-29 21:52 38.25277 -86.40406 27990 ft 188 kts 277°
2026-04-29 21:52 38.25564 -86.42031 27991 ft 188 kts 277°
2026-04-29 21:53 38.25852 -86.43658 27992 ft 188 kts 277°
2026-04-29 21:53 38.26135 -86.45265 27993 ft 189 kts 277°
2026-04-29 21:53 38.26422 -86.46894 27993 ft 189 kts 277°
2026-04-29 21:53 38.26709 -86.48521 27993 ft 188 kts 277°
2026-04-29 21:54 38.26995 -86.50147 27995 ft 188 kts 277°
2026-04-29 21:54 38.27280 -86.51775 27994 ft 188 kts 277°
2026-04-29 21:54 38.27567 -86.53400 27995 ft 188 kts 277°
2026-04-29 21:54 38.27852 -86.55027 27994 ft 188 kts 277°
2026-04-29 21:55 38.28136 -86.56649 28010 ft 188 kts 277°
2026-04-29 21:55 38.28421 -86.58280 27995 ft 189 kts 277°
2026-04-29 21:55 38.28707 -86.59910 28000 ft 189 kts 277°
2026-04-29 21:55 38.28992 -86.61539 28001 ft 189 kts 277°
2026-04-29 21:56 38.29277 -86.63171 28008 ft 189 kts 277°
2026-04-29 21:56 38.29562 -86.64803 28002 ft 188 kts 277°
2026-04-29 21:56 38.29846 -86.66434 28002 ft 188 kts 277°
2026-04-29 21:56 38.30130 -86.68063 28004 ft 188 kts 277°
2026-04-29 21:57 38.30410 -86.69671 28002 ft 188 kts 277°
2026-04-29 21:57 38.30692 -86.71297 28016 ft 188 kts 277°
2026-04-29 21:57 38.30976 -86.72924 28021 ft 188 kts 277°
2026-04-29 21:57 38.31259 -86.74556 28017 ft 189 kts 277°
2026-04-29 21:58 38.31542 -86.76187 28022 ft 189 kts 277°
2026-04-29 21:58 38.31825 -86.77819 28028 ft 189 kts 277°
2026-04-29 21:58 38.32107 -86.79449 28019 ft 189 kts 277°
2026-04-29 21:58 38.32389 -86.81082 28027 ft 189 kts 277°
2026-04-29 21:59 38.32671 -86.82712 28022 ft 189 kts 277°
2026-04-29 21:59 38.32954 -86.84346 28026 ft 189 kts 277°
2026-04-29 21:59 38.33235 -86.85978 28022 ft 189 kts 277°
2026-04-29 21:59 38.33517 -86.87610 28024 ft 189 kts 277°
2026-04-29 22:00 38.33798 -86.89241 28024 ft 188 kts 277°
2026-04-29 22:00 38.34078 -86.90870 28020 ft 188 kts 277°
2026-04-29 22:00 38.34354 -86.92476 28018 ft 188 kts 277°
2026-04-29 22:00 38.34634 -86.94105 28028 ft 188 kts 277°
2026-04-29 22:01 38.34914 -86.95734 28019 ft 188 kts 277°
2026-04-29 22:01 38.35194 -86.97364 28020 ft 188 kts 277°
2026-04-29 22:01 38.35472 -86.98993 28024 ft 188 kts 277°
2026-04-29 22:01 38.35752 -87.00626 28022 ft 189 kts 277°
2026-04-29 22:02 38.36032 -87.02264 28030 ft 189 kts 277°
2026-04-29 22:02 38.36313 -87.03907 28023 ft 190 kts 277°
2026-04-29 22:02 38.36593 -87.05547 28025 ft 189 kts 277°
2026-04-29 22:02 38.36873 -87.07187 28021 ft 189 kts 277°
2026-04-29 22:03 38.37152 -87.08823 28031 ft 189 kts 277°
2026-04-29 22:03 38.37430 -87.10459 28023 ft 189 kts 277°
2026-04-29 22:03 38.37709 -87.12093 28021 ft 189 kts 277°
2026-04-29 22:03 38.37982 -87.13704 28020 ft 189 kts 277°
2026-04-29 22:04 38.38260 -87.15338 28021 ft 189 kts 277°
2026-04-29 22:04 38.38537 -87.16973 28026 ft 189 kts 277°
2026-04-29 22:04 38.38815 -87.18618 28021 ft 189 kts 277°
2026-04-29 22:04 38.39094 -87.20258 28018 ft 189 kts 277°
2026-04-29 22:05 38.39371 -87.21895 28022 ft 189 kts 277°
2026-04-29 22:05 38.39648 -87.23534 28025 ft 189 kts 277°
2026-04-29 22:05 38.40202 -87.26812 28023 ft 189 kts 277°
2026-04-29 22:06 38.40474 -87.28429 28023 ft 189 kts 277°
2026-04-29 22:06 38.40753 -87.30086 28028 ft 189 kts 277°
2026-04-29 22:06 38.41025 -87.31699 28028 ft 189 kts 277°
2026-04-29 22:06 38.41300 -87.33334 28028 ft 189 kts 277°
2026-04-29 22:07 38.41574 -87.34968 28029 ft 189 kts 277°
2026-04-29 22:07 38.41849 -87.36604 28029 ft 189 kts 277°
2026-04-29 22:07 38.42123 -87.38240 28029 ft 189 kts 277°
2026-04-29 22:07 38.42398 -87.39879 28027 ft 189 kts 277°
2026-04-29 22:08 38.42672 -87.41516 28030 ft 189 kts 277°
2026-04-29 22:08 38.42946 -87.43153 28035 ft 189 kts 277°
2026-04-29 22:08 38.43220 -87.44796 28034 ft 189 kts 277°
2026-04-29 22:08 38.43494 -87.46437 28032 ft 189 kts 277°
2026-04-29 22:09 38.43768 -87.48078 28032 ft 189 kts 277°
2026-04-29 22:09 38.44038 -87.49698 28035 ft 189 kts 277°
2026-04-29 22:09 38.44311 -87.51339 28040 ft 189 kts 277°
2026-04-29 22:09 38.44584 -87.52979 28037 ft 189 kts 277°
2026-04-29 22:10 38.44857 -87.54618 28036 ft 189 kts 277°
2026-04-29 22:10 38.45129 -87.56259 28042 ft 189 kts 277°
2026-04-29 22:10 38.45401 -87.57899 28037 ft 189 kts 277°
2026-04-29 22:10 38.45673 -87.59538 28036 ft 189 kts 277°
2026-04-29 22:11 38.45944 -87.61176 28038 ft 189 kts 277°
2026-04-29 22:11 38.46215 -87.62812 28041 ft 189 kts 277°
2026-04-29 22:11 38.46486 -87.64451 28041 ft 188 kts 277°
2026-04-29 22:11 38.46756 -87.66088 28045 ft 188 kts 277°
2026-04-29 22:12 38.47026 -87.67726 28038 ft 188 kts 277°
2026-04-29 22:12 38.47293 -87.69344 28041 ft 188 kts 277°
2026-04-29 22:12 38.47563 -87.70984 28054 ft 188 kts 277°
2026-04-29 22:12 38.47832 -87.72621 28037 ft 189 kts 277°
2026-04-29 22:13 38.48102 -87.74260 28037 ft 188 kts 277°
2026-04-29 22:13 38.48370 -87.75896 28043 ft 188 kts 277°
2026-04-29 22:13 38.48639 -87.77536 28037 ft 188 kts 277°
2026-04-29 22:13 38.48907 -87.79173 28037 ft 188 kts 277°
2026-04-29 22:14 38.49176 -87.80808 28045 ft 188 kts 277°
2026-04-29 22:14 38.49443 -87.82444 28037 ft 188 kts 277°
2026-04-29 22:14 38.49711 -87.84081 28044 ft 188 kts 277°
2026-04-29 22:14 38.49974 -87.85693 28037 ft 188 kts 277°
2026-04-29 22:15 38.50241 -87.87332 28041 ft 188 kts 277°
2026-04-29 22:15 38.50509 -87.88973 28037 ft 188 kts 277°
2026-04-29 22:15 38.50776 -87.90609 28042 ft 188 kts 277°
2026-04-29 22:15 38.51042 -87.92251 28039 ft 189 kts 277°
2026-04-29 22:16 38.51309 -87.93888 28044 ft 188 kts 277°
2026-04-29 22:16 38.51576 -87.95531 28040 ft 188 kts 277°
2026-04-29 22:16 38.51841 -87.97169 28051 ft 188 kts 277°
2026-04-29 22:16 38.52107 -87.98807 28041 ft 188 kts 277°
2026-04-29 22:17 38.52283 -87.99891 28041 ft 188 kts 277°
2026-04-29 22:17 38.52638 -88.02086 28049 ft 189 kts 277°
2026-04-29 22:17 38.52903 -88.03726 28056 ft 189 kts 277°
2026-04-29 22:17 38.53168 -88.05368 28046 ft 189 kts 277°
2026-04-29 22:18 38.53344 -88.06456 28044 ft 189 kts 277°
2026-04-29 22:18 38.53694 -88.08631 28045 ft 189 kts 277°
2026-04-29 22:18 38.53959 -88.10278 28051 ft 189 kts 277°
2026-04-29 22:18 38.54225 -88.11925 28047 ft 189 kts 277°
2026-04-29 22:19 38.54403 -88.13037 28059 ft 189 kts 277°
2026-04-29 22:19 38.54685 -88.14788 28050 ft 189 kts 277°
2026-04-29 22:19 38.54860 -88.15879 28050 ft 189 kts 277°
2026-04-29 22:19 38.55124 -88.17526 28063 ft 189 kts 277°
2026-04-29 22:20 38.55387 -88.19170 28054 ft 189 kts 277°
2026-04-29 22:20 38.55651 -88.20814 28055 ft 189 kts 277°
2026-04-29 22:20 38.55914 -88.22462 28065 ft 189 kts 277°
2026-04-29 22:20 38.56176 -88.24104 28058 ft 189 kts 277°
2026-04-29 22:21 38.56439 -88.25751 28056 ft 189 kts 277°
2026-04-29 22:21 38.56702 -88.27395 28056 ft 189 kts 277°
2026-04-29 22:21 38.56964 -88.29043 28066 ft 189 kts 277°
2026-04-29 22:21 38.57226 -88.30688 28060 ft 189 kts 277°
2026-04-29 22:22 38.57487 -88.32331 28062 ft 189 kts 277°
2026-04-29 22:22 38.57749 -88.33977 28058 ft 189 kts 277°
2026-04-29 22:22 38.58010 -88.35623 28059 ft 189 kts 277°
2026-04-29 22:22 38.58271 -88.37269 28059 ft 189 kts 277°
2026-04-29 22:23 38.58532 -88.38917 28059 ft 189 kts 277°
2026-04-29 22:23 38.58793 -88.40564 28067 ft 189 kts 277°
2026-04-29 22:23 38.59053 -88.42209 28066 ft 189 kts 277°
2026-04-29 22:23 38.59309 -88.43831 28059 ft 189 kts 277°
2026-04-29 22:24 38.59569 -88.45480 28074 ft 189 kts 277°
2026-04-29 22:24 38.59829 -88.47127 28063 ft 189 kts 277°
2026-04-29 22:24 38.60088 -88.48771 28057 ft 189 kts 277°
2026-04-29 22:24 38.60346 -88.50414 28066 ft 189 kts 277°
2026-04-29 22:25 38.60605 -88.52064 28062 ft 189 kts 277°
2026-04-29 22:25 38.60864 -88.53710 28052 ft 189 kts 277°
2026-04-29 22:25 38.61122 -88.55355 28052 ft 189 kts 277°
2026-04-29 22:25 38.61380 -88.57001 28053 ft 189 kts 277°
2026-04-29 22:26 38.61639 -88.58649 28053 ft 189 kts 277°
2026-04-29 22:26 38.61896 -88.60299 28054 ft 189 kts 277°
2026-04-29 22:26 38.62154 -88.61948 28054 ft 189 kts 277°
2026-04-29 22:26 38.62412 -88.63597 28056 ft 189 kts 277°
2026-04-29 22:27 38.62669 -88.65247 28064 ft 189 kts 277°
2026-04-29 22:27 38.62926 -88.66895 28065 ft 189 kts 277°
2026-04-29 22:27 38.63180 -88.68524 28059 ft 189 kts 277°
2026-04-29 22:27 38.63436 -88.70174 28060 ft 189 kts 277°
2026-04-29 22:28 38.63693 -88.71827 28066 ft 189 kts 277°
2026-04-29 22:28 38.63950 -88.73481 28071 ft 189 kts 277°
2026-04-29 22:28 38.64206 -88.75132 28077 ft 189 kts 277°
2026-04-29 22:28 38.64462 -88.76783 28066 ft 189 kts 277°
2026-04-29 22:29 38.64718 -88.78439 28075 ft 190 kts 277°
2026-04-29 22:29 38.64974 -88.80097 28072 ft 190 kts 277°
2026-04-29 22:29 38.65231 -88.81757 28076 ft 190 kts 277°
2026-04-29 22:29 38.65488 -88.83422 28069 ft 191 kts 277°
2026-04-29 22:30 38.65744 -88.85082 28067 ft 190 kts 277°
2026-04-29 22:30 38.66000 -88.86744 28059 ft 190 kts 277°
2026-04-29 22:30 38.66255 -88.88403 28059 ft 190 kts 277°
2026-04-29 22:30 38.66509 -88.90059 28058 ft 190 kts 277°
2026-04-29 22:31 38.66764 -88.91717 28058 ft 190 kts 277°
2026-04-29 22:31 38.67018 -88.93372 28058 ft 190 kts 277°
2026-04-29 22:31 38.67272 -88.95027 28069 ft 190 kts 277°
2026-04-29 22:31 38.67524 -88.96681 28069 ft 189 kts 277°
2026-04-29 22:32 38.67775 -88.98314 28066 ft 189 kts 277°
2026-04-29 22:32 38.68027 -88.99969 28067 ft 189 kts 277°
2026-04-29 22:32 38.68280 -89.01624 28067 ft 189 kts 277°
2026-04-29 22:32 38.68533 -89.03280 28068 ft 190 kts 277°
2026-04-29 22:33 38.68785 -89.04940 28071 ft 190 kts 277°
2026-04-29 22:33 38.69038 -89.06598 28072 ft 190 kts 277°
2026-04-29 22:33 38.69290 -89.08257 28072 ft 190 kts 277°
2026-04-29 22:33 38.69542 -89.09916 28072 ft 190 kts 277°
2026-04-29 22:34 38.69794 -89.11576 28074 ft 190 kts 277°
2026-04-29 22:34 38.70046 -89.13240 28074 ft 190 kts 277°
2026-04-29 22:34 38.70298 -89.14905 28073 ft 190 kts 277°
2026-04-29 22:34 38.70550 -89.16570 28073 ft 190 kts 277°
2026-04-29 22:35 38.70801 -89.18228 28073 ft 190 kts 277°
2026-04-29 22:35 38.71052 -89.19894 28072 ft 190 kts 277°
2026-04-29 22:35 38.71303 -89.21555 28072 ft 190 kts 277°
2026-04-29 22:35 38.71553 -89.23214 28072 ft 190 kts 277°
2026-04-29 22:36 38.71803 -89.24877 28068 ft 190 kts 276°
2026-04-29 22:36 38.72052 -89.26534 28068 ft 190 kts 276°
2026-04-29 22:36 38.72301 -89.28191 28067 ft 190 kts 276°
2026-04-29 22:36 38.72550 -89.29849 28068 ft 190 kts 276°
2026-04-29 22:37 38.72799 -89.31506 28068 ft 190 kts 276°
2026-04-29 22:37 38.73044 -89.33143 28068 ft 189 kts 276°
2026-04-29 22:37 38.73292 -89.34804 28070 ft 189 kts 276°
2026-04-29 22:37 38.73540 -89.36460 28069 ft 190 kts 276°
2026-04-29 22:38 38.73787 -89.38118 28072 ft 190 kts 276°
2026-04-29 22:38 38.74035 -89.39777 28072 ft 190 kts 276°
2026-04-29 22:38 38.74282 -89.41436 28072 ft 190 kts 276°
2026-04-29 22:38 38.74529 -89.43096 28072 ft 190 kts 276°
2026-04-29 22:39 38.74776 -89.44758 28070 ft 190 kts 276°
2026-04-29 22:39 38.75023 -89.46420 28070 ft 190 kts 276°
2026-04-29 22:39 38.75270 -89.48080 28070 ft 190 kts 276°
2026-04-29 22:39 38.75515 -89.49740 28071 ft 190 kts 276°
2026-04-29 22:40 38.75761 -89.51401 28073 ft 190 kts 276°
2026-04-29 22:40 38.76004 -89.53038 28073 ft 190 kts 276°
2026-04-29 22:40 38.76249 -89.54698 28074 ft 190 kts 276°
2026-04-29 22:40 38.76494 -89.56361 28074 ft 190 kts 276°
2026-04-29 22:41 38.76740 -89.58023 28074 ft 190 kts 276°
2026-04-29 22:41 38.76985 -89.59685 28074 ft 190 kts 276°
2026-04-29 22:41 38.77229 -89.61345 28074 ft 190 kts 276°
2026-04-29 22:41 38.77473 -89.63004 28074 ft 190 kts 276°
2026-04-29 22:42 38.77717 -89.64665 28072 ft 190 kts 276°
2026-04-29 22:42 38.77961 -89.66326 28072 ft 190 kts 276°
2026-04-29 22:42 38.78204 -89.67986 28072 ft 190 kts 276°
2026-04-29 22:42 38.78447 -89.69648 28076 ft 190 kts 276°
2026-04-29 22:43 38.78691 -89.71313 28075 ft 190 kts 276°
2026-04-29 22:43 38.78930 -89.72953 28076 ft 190 kts 276°
2026-04-29 22:43 38.79173 -89.74616 28076 ft 190 kts 276°
2026-04-29 22:43 38.79416 -89.76278 28076 ft 190 kts 276°
2026-04-29 22:44 38.79658 -89.77942 28077 ft 190 kts 276°
2026-04-29 22:44 38.79900 -89.79606 28077 ft 190 kts 276°
2026-04-29 22:44 38.80142 -89.81268 28077 ft 190 kts 276°
2026-04-29 22:44 38.80384 -89.82936 28078 ft 190 kts 276°
2026-04-29 22:45 38.80626 -89.84603 28077 ft 190 kts 276°
2026-04-29 22:45 38.80868 -89.86272 28077 ft 190 kts 276°
2026-04-29 22:45 38.81109 -89.87939 28077 ft 190 kts 276°
2026-04-29 22:45 38.81350 -89.89603 28078 ft 190 kts 276°
2026-04-29 22:46 38.81590 -89.91268 28077 ft 190 kts 276°
2026-04-29 22:46 38.81831 -89.92935 28078 ft 190 kts 276°
2026-04-29 22:46 38.82071 -89.94601 28077 ft 190 kts 276°
2026-04-29 22:46 38.82311 -89.96270 28078 ft 190 kts 276°
2026-04-29 22:47 38.82551 -89.97938 28078 ft 190 kts 276°
2026-04-29 22:47 38.82788 -89.99586 28085 ft 190 kts 276°
2026-04-29 22:47 38.83028 -90.01255 28082 ft 190 kts 276°
2026-04-29 22:47 38.83267 -90.02925 28082 ft 190 kts 276°
2026-04-29 22:48 38.83506 -90.04597 28082 ft 190 kts 276°
2026-04-29 22:48 38.83745 -90.06266 28082 ft 190 kts 276°
2026-04-29 22:48 38.83984 -90.07933 28083 ft 190 kts 276°
2026-04-29 22:48 38.84222 -90.09603 28082 ft 190 kts 276°
2026-04-29 22:49 38.84461 -90.11276 28084 ft 190 kts 276°
2026-04-29 22:49 38.84699 -90.12947 28084 ft 190 kts 276°
2026-04-29 22:49 38.84934 -90.14596 28084 ft 190 kts 276°
2026-04-29 22:49 38.85171 -90.16264 28084 ft 190 kts 276°
2026-04-29 22:50 38.85408 -90.17934 28086 ft 190 kts 276°
2026-04-29 22:50 38.85645 -90.19602 28086 ft 190 kts 276°
2026-04-29 22:50 38.85881 -90.21270 28086 ft 190 kts 276°
2026-04-29 22:50 38.86117 -90.22939 28086 ft 190 kts 276°
2026-04-29 22:51 38.86353 -90.24605 28085 ft 190 kts 276°
2026-04-29 22:51 38.86589 -90.26275 28086 ft 190 kts 276°
2026-04-29 22:51 38.87060 -90.29611 28078 ft 190 kts 276°
2026-04-29 22:52 38.87295 -90.31280 28078 ft 190 kts 276°
2026-04-29 22:52 38.87530 -90.32951 28078 ft 190 kts 276°
2026-04-29 22:52 38.87764 -90.34620 28078 ft 190 kts 276°
2026-04-29 22:52 38.87998 -90.36290 28079 ft 190 kts 276°
2026-04-29 22:53 38.88230 -90.37938 28080 ft 190 kts 276°
2026-04-29 22:53 38.88463 -90.39606 28073 ft 190 kts 276°
2026-04-29 22:53 38.88697 -90.41275 28073 ft 190 kts 276°
2026-04-29 22:53 38.88930 -90.42943 28073 ft 190 kts 276°
2026-04-29 22:54 38.89163 -90.44614 28116 ft 190 kts 276°
2026-04-29 22:54 38.89397 -90.46293 28079 ft 191 kts 276°
2026-04-29 22:54 38.89631 -90.47971 28080 ft 191 kts 276°
2026-04-29 22:54 38.89864 -90.49647 28080 ft 191 kts 276°
2026-04-29 22:55 38.90097 -90.51323 28079 ft 191 kts 276°
2026-04-29 22:55 38.90330 -90.52997 28078 ft 190 kts 276°
2026-04-29 22:55 38.90562 -90.54674 28078 ft 190 kts 276°
2026-04-29 22:55 38.90793 -90.56343 28079 ft 190 kts 276°
2026-04-29 22:56 38.91024 -90.58011 28077 ft 190 kts 276°
2026-04-29 22:56 38.91255 -90.59680 28076 ft 190 kts 276°
2026-04-29 22:56 38.91482 -90.61324 28079 ft 190 kts 276°
2026-04-29 22:56 38.91712 -90.62994 28078 ft 190 kts 276°
2026-04-29 22:57 38.91942 -90.64661 28081 ft 190 kts 276°
2026-04-29 22:57 38.92172 -90.66329 28081 ft 190 kts 276°
2026-04-29 22:57 38.92401 -90.67999 28081 ft 190 kts 276°
2026-04-29 22:57 38.92631 -90.69667 28081 ft 190 kts 276°
2026-04-29 22:58 38.92859 -90.71334 28080 ft 190 kts 276°
2026-04-29 22:58 38.93088 -90.73004 28080 ft 190 kts 276°
2026-04-29 22:58 38.93316 -90.74672 28081 ft 190 kts 276°
2026-04-29 22:58 38.93544 -90.76343 28084 ft 190 kts 276°
2026-04-29 22:59 38.93774 -90.78019 28083 ft 191 kts 276°
2026-04-29 22:59 38.94004 -90.79706 28086 ft 192 kts 276°
2026-04-29 22:59 38.94234 -90.81394 28086 ft 192 kts 276°
2026-04-29 22:59 38.94460 -90.83057 28087 ft 191 kts 276°
2026-04-29 23:00 38.94689 -90.84742 28086 ft 191 kts 276°
2026-04-29 23:00 38.94918 -90.86428 28090 ft 191 kts 276°
2026-04-29 23:00 38.95147 -90.88114 28091 ft 192 kts 276°
2026-04-29 23:00 38.95376 -90.89801 28093 ft 192 kts 276°
2026-04-29 23:01 38.95604 -90.91491 28092 ft 192 kts 276°
2026-04-29 23:01 38.95833 -90.93179 28097 ft 191 kts 276°
2026-04-29 23:01 38.96057 -90.94841 28097 ft 191 kts 276°
2026-04-29 23:01 38.96285 -90.96527 28097 ft 191 kts 276°
2026-04-29 23:02 38.96512 -90.98211 28096 ft 191 kts 276°
2026-04-29 23:02 38.96738 -90.99892 28095 ft 191 kts 276°
2026-04-29 23:02 38.96964 -91.01569 28095 ft 190 kts 276°
2026-04-29 23:02 38.97189 -91.03248 28095 ft 190 kts 276°
2026-04-29 23:03 38.97414 -91.04927 28097 ft 190 kts 276°
2026-04-29 23:03 38.97639 -91.06603 28097 ft 190 kts 276°
2026-04-29 23:03 38.97862 -91.08278 28102 ft 190 kts 276°
2026-04-29 23:03 38.98087 -91.09954 28102 ft 190 kts 276°
2026-04-29 23:04 38.98310 -91.11628 28105 ft 190 kts 276°
2026-04-29 23:04 38.98531 -91.13283 28104 ft 190 kts 276°
2026-04-29 23:04 38.98755 -91.14959 28101 ft 190 kts 276°
2026-04-29 23:04 38.98977 -91.16634 28101 ft 190 kts 276°
2026-04-29 23:05 38.99200 -91.18313 28102 ft 190 kts 276°
2026-04-29 23:05 38.99423 -91.19991 28102 ft 191 kts 276°
2026-04-29 23:05 38.99646 -91.21673 28102 ft 190 kts 276°
2026-04-29 23:05 38.99869 -91.23352 28105 ft 190 kts 276°
2026-04-29 23:06 39.00091 -91.25032 28106 ft 191 kts 276°
2026-04-29 23:06 39.00238 -91.26145 28105 ft 191 kts 276°
2026-04-29 23:06 39.00461 -91.27828 28105 ft 191 kts 276°
2026-04-29 23:06 39.00683 -91.29512 28105 ft 191 kts 276°
2026-04-29 23:07 39.00904 -91.31193 28107 ft 191 kts 276°
2026-04-29 23:07 39.01125 -91.32873 28107 ft 191 kts 276°
2026-04-29 23:07 39.01347 -91.34554 28107 ft 191 kts 276°
2026-04-29 23:07 39.01567 -91.36236 28107 ft 191 kts 276°
2026-04-29 23:08 39.01788 -91.37918 28112 ft 191 kts 276°
2026-04-29 23:08 39.02008 -91.39601 28112 ft 191 kts 276°
2026-04-29 23:08 39.02228 -91.41283 28115 ft 191 kts 276°
2026-04-29 23:08 39.02449 -91.42968 28116 ft 191 kts 276°
2026-04-29 23:09 39.02669 -91.44652 28115 ft 191 kts 276°
2026-04-29 23:09 39.02888 -91.46339 28117 ft 191 kts 276°
2026-04-29 23:09 39.03108 -91.48025 28117 ft 191 kts 276°
2026-04-29 23:09 39.03327 -91.49711 28117 ft 191 kts 276°
2026-04-29 23:10 39.03544 -91.51377 28122 ft 191 kts 276°
2026-04-29 23:10 39.03763 -91.53063 28129 ft 191 kts 276°
2026-04-29 23:10 39.03982 -91.54757 28122 ft 191 kts 276°
2026-04-29 23:10 39.04201 -91.56445 28123 ft 192 kts 276°
2026-04-29 23:11 39.04420 -91.58140 28127 ft 192 kts 276°
2026-04-29 23:11 39.04639 -91.59834 28128 ft 192 kts 276°
2026-04-29 23:11 39.04858 -91.61532 28127 ft 192 kts 276°
2026-04-29 23:11 39.05077 -91.63229 28126 ft 192 kts 276°
2026-04-29 23:12 39.05296 -91.64930 28124 ft 192 kts 276°
2026-04-29 23:12 39.05514 -91.66627 28125 ft 192 kts 276°
2026-04-29 23:12 39.05732 -91.68323 28127 ft 192 kts 276°
2026-04-29 23:12 39.05950 -91.70021 28127 ft 193 kts 276°
2026-04-29 23:13 39.06165 -91.71699 28127 ft 192 kts 276°
2026-04-29 23:13 39.06382 -91.73397 28127 ft 192 kts 276°
2026-04-29 23:13 39.06599 -91.75094 28128 ft 192 kts 276°
2026-04-29 23:13 39.06816 -91.76793 28127 ft 192 kts 276°
2026-04-29 23:14 39.07032 -91.78490 28127 ft 192 kts 276°
2026-04-29 23:14 39.07249 -91.80191 28127 ft 192 kts 276°
2026-04-29 23:14 39.07464 -91.81886 28128 ft 192 kts 276°
2026-04-29 23:14 39.07681 -91.83587 28128 ft 192 kts 276°
2026-04-29 23:15 39.07897 -91.85290 28127 ft 193 kts 276°
2026-04-29 23:15 39.08112 -91.86989 28127 ft 193 kts 276°
2026-04-29 23:15 39.08328 -91.88692 28127 ft 192 kts 276°
2026-04-29 23:15 39.08543 -91.90392 28128 ft 192 kts 276°
2026-04-29 23:16 39.08757 -91.92093 28120 ft 193 kts 276°
2026-04-29 23:16 39.08973 -91.93799 28119 ft 193 kts 276°
2026-04-29 23:16 39.09187 -91.95502 28118 ft 193 kts 276°
2026-04-29 23:16 39.09402 -91.97205 28118 ft 193 kts 276°
2026-04-29 23:17 39.09616 -91.98909 28123 ft 193 kts 276°
2026-04-29 23:17 39.09830 -92.00616 28123 ft 193 kts 276°
2026-04-29 23:17 39.10044 -92.02322 28123 ft 193 kts 276°
2026-04-29 23:17 39.10254 -92.04006 28123 ft 193 kts 276°
2026-04-29 23:18 39.10468 -92.05715 28175 ft 193 kts 276°
2026-04-29 23:18 39.10683 -92.07441 28127 ft 195 kts 276°
2026-04-29 23:18 39.10899 -92.09170 28127 ft 195 kts 276°
2026-04-29 23:18 39.11115 -92.10897 28127 ft 196 kts 276°
2026-04-29 23:19 39.11319 -92.12629 28128 ft 195 kts 273°
2026-04-29 23:19 39.11187 -92.14365 28131 ft 196 kts 263°
2026-04-29 23:19 39.10964 -92.16094 28133 ft 196 kts 264°
2026-04-29 23:19 39.10754 -92.17827 28133 ft 196 kts 264°
2026-04-29 23:20 39.10548 -92.19563 28129 ft 196 kts 264°
2026-04-29 23:20 39.10343 -92.21281 28132 ft 197 kts 264°
2026-04-29 23:20 39.10134 -92.23023 28097 ft 197 kts 264°
2026-04-29 23:20 39.09926 -92.24754 28117 ft 195 kts 264°
2026-04-29 23:21 39.09718 -92.26475 28116 ft 195 kts 264°
2026-04-29 23:21 39.09511 -92.28197 28117 ft 194 kts 264°
2026-04-29 23:21 39.09304 -92.29917 28124 ft 195 kts 264°
2026-04-29 23:21 39.09096 -92.31639 28124 ft 195 kts 264°
2026-04-29 23:22 39.08887 -92.33364 28124 ft 195 kts 264°
2026-04-29 23:22 39.08679 -92.35088 28125 ft 195 kts 264°
2026-04-29 23:22 39.08469 -92.36819 28128 ft 195 kts 264°
2026-04-29 23:22 39.08259 -92.38549 28127 ft 196 kts 264°
2026-04-29 23:23 39.08048 -92.40281 28128 ft 196 kts 264°
2026-04-29 23:23 39.07838 -92.42012 28127 ft 196 kts 264°
2026-04-29 23:23 39.07627 -92.43741 28128 ft 195 kts 264°
2026-04-29 23:23 39.07416 -92.45470 28130 ft 196 kts 264°
2026-04-29 23:24 39.07205 -92.47200 28129 ft 195 kts 264°
2026-04-29 23:24 39.06994 -92.48925 28129 ft 195 kts 264°
2026-04-29 23:24 39.06782 -92.50650 28129 ft 195 kts 264°
2026-04-29 23:24 39.06571 -92.52378 28128 ft 196 kts 264°
2026-04-29 23:25 39.06359 -92.54107 28130 ft 196 kts 264°
2026-04-29 23:25 39.06145 -92.55840 28129 ft 196 kts 264°
2026-04-29 23:25 39.05933 -92.57568 28130 ft 196 kts 264°
2026-04-29 23:25 39.05722 -92.59278 28128 ft 196 kts 264°
2026-04-29 23:26 39.05509 -92.61006 28129 ft 196 kts 264°
2026-04-29 23:26 39.05294 -92.62738 28127 ft 196 kts 264°
2026-04-29 23:26 39.05080 -92.64470 28129 ft 196 kts 264°
2026-04-29 23:26 39.04866 -92.66203 28128 ft 196 kts 264°
2026-04-29 23:27 39.04651 -92.67936 28111 ft 196 kts 264°
2026-04-29 23:27 39.04435 -92.69671 28110 ft 197 kts 264°
2026-04-29 23:27 39.04219 -92.71407 28111 ft 197 kts 264°
2026-04-29 23:27 39.04003 -92.73146 28111 ft 197 kts 264°
2026-04-29 23:28 39.03786 -92.74886 28112 ft 197 kts 264°
2026-04-29 23:28 39.03569 -92.76623 28113 ft 197 kts 264°
2026-04-29 23:28 39.03351 -92.78377 27967 ft 202 kts 263°
2026-04-29 23:28 39.03124 -92.80194 27716 ft 209 kts 263°
2026-04-29 23:29 39.02889 -92.82060 27517 ft 213 kts 263°
2026-04-29 23:29 39.02655 -92.83927 27339 ft 215 kts 263°
2026-04-29 23:29 39.02417 -92.85822 27163 ft 214 kts 263°
2026-04-29 23:29 39.02178 -92.87712 26984 ft 214 kts 263°
2026-04-29 23:30 39.01941 -92.89602 26807 ft 214 kts 263°
2026-04-29 23:30 39.01702 -92.91493 26633 ft 214 kts 263°
2026-04-29 23:30 39.01463 -92.93384 26459 ft 215 kts 263°
2026-04-29 23:30 39.01224 -92.95281 26281 ft 215 kts 263°
2026-04-29 23:31 39.00983 -92.97183 26108 ft 216 kts 263°
2026-04-29 23:31 39.00741 -92.99084 25934 ft 215 kts 263°
2026-04-29 23:31 39.00502 -93.00973 25760 ft 214 kts 263°
2026-04-29 23:31 39.00262 -93.02858 25587 ft 213 kts 263°
2026-04-29 23:32 39.00023 -93.04737 25419 ft 213 kts 263°
2026-04-29 23:32 38.99783 -93.06617 25251 ft 213 kts 263°
2026-04-29 23:32 38.99542 -93.08510 25081 ft 215 kts 263°
2026-04-29 23:32 38.99299 -93.10403 24914 ft 215 kts 263°
2026-04-29 23:33 38.99057 -93.12296 24733 ft 214 kts 263°
2026-04-29 23:33 38.98815 -93.14188 24447 ft 215 kts 263°
2026-04-29 23:33 38.98572 -93.16082 24143 ft 215 kts 263°
2026-04-29 23:33 38.98329 -93.17968 23841 ft 213 kts 263°
2026-04-29 23:34 38.98088 -93.19841 23504 ft 211 kts 263°
2026-04-29 23:34 38.97849 -93.21696 23145 ft 210 kts 263°
2026-04-29 23:34 38.97611 -93.23550 22792 ft 209 kts 263°
2026-04-29 23:34 38.97376 -93.25373 22448 ft 209 kts 263°
2026-04-29 23:35 38.97138 -93.27215 22107 ft 209 kts 263°
2026-04-29 23:35 38.96899 -93.29058 21768 ft 209 kts 263°
2026-04-29 23:35 38.96661 -93.30896 21433 ft 208 kts 263°
2026-04-29 23:35 38.96423 -93.32729 21101 ft 208 kts 263°
2026-04-29 23:36 38.96184 -93.34563 20772 ft 207 kts 263°
2026-04-29 23:36 38.95946 -93.36393 20449 ft 207 kts 263°
2026-04-29 23:36 38.95707 -93.38223 20128 ft 207 kts 263°
2026-04-29 23:36 38.95472 -93.40029 19815 ft 208 kts 263°
2026-04-29 23:37 38.95232 -93.41860 19504 ft 208 kts 263°
2026-04-29 23:37 38.94992 -93.43700 19195 ft 209 kts 263°
2026-04-29 23:37 38.94750 -93.45540 18884 ft 209 kts 263°
2026-04-29 23:37 38.94508 -93.47387 18578 ft 210 kts 263°
2026-04-29 23:38 38.94265 -93.49238 18255 ft 211 kts 263°
2026-04-29 23:38 38.94021 -93.51098 17906 ft 211 kts 263°
2026-04-29 23:38 38.93775 -93.52959 17562 ft 211 kts 264°
2026-04-29 23:38 38.93529 -93.54826 17220 ft 210 kts 264°
2026-04-29 23:39 38.93288 -93.56645 16879 ft 204 kts 264°
2026-04-29 23:39 38.93052 -93.58434 16539 ft 202 kts 264°
2026-04-29 23:39 38.92819 -93.60202 16205 ft 200 kts 264°
2026-04-29 23:39 38.92586 -93.61961 15877 ft 200 kts 264°
2026-04-29 23:40 38.92352 -93.63718 15553 ft 199 kts 264°
2026-04-29 23:40 38.92122 -93.65451 15236 ft 199 kts 264°
2026-04-29 23:40 38.91889 -93.67204 14920 ft 199 kts 265°
2026-04-29 23:40 38.91656 -93.68960 14606 ft 199 kts 265°
2026-04-29 23:41 38.91421 -93.70715 14295 ft 199 kts 265°
2026-04-29 23:41 38.91188 -93.72462 13987 ft 198 kts 265°
2026-04-29 23:41 38.90955 -93.74206 13646 ft 198 kts 265°
2026-04-29 23:41 38.90723 -93.75949 13293 ft 198 kts 265°
2026-04-29 23:42 38.90488 -93.77698 12952 ft 199 kts 265°
2026-04-29 23:42 38.90253 -93.79447 12614 ft 199 kts 265°
2026-04-29 23:42 38.90018 -93.81206 12275 ft 201 kts 265°
2026-04-29 23:42 38.89780 -93.82975 11941 ft 202 kts 265°
2026-04-29 23:43 38.89540 -93.84761 11613 ft 203 kts 265°
2026-04-29 23:43 38.89298 -93.86553 11294 ft 205 kts 265°
2026-04-29 23:43 38.89055 -93.88356 10971 ft 205 kts 265°
2026-04-29 23:43 38.88810 -93.90167 10653 ft 206 kts 265°
2026-04-29 23:44 38.88565 -93.91982 10329 ft 207 kts 265°
2026-04-29 23:44 38.88319 -93.93806 10023 ft 208 kts 265°
2026-04-29 23:44 38.88069 -93.95637 9680 ft 209 kts 265°
2026-04-29 23:44 38.87820 -93.97476 9338 ft 209 kts 265°
2026-04-29 23:45 38.87572 -93.99293 8996 ft 203 kts 265°
2026-04-29 23:45 38.87333 -94.01041 8652 ft 196 kts 265°
2026-04-29 23:45 38.87102 -94.02749 8311 ft 193 kts 266°
2026-04-29 23:45 38.86871 -94.04445 7979 ft 193 kts 266°
2026-04-29 23:46 38.86640 -94.06144 7651 ft 192 kts 266°
2026-04-29 23:46 38.86410 -94.07811 7324 ft 189 kts 266°
2026-04-29 23:46 38.86188 -94.09448 7009 ft 188 kts 266°
2026-04-29 23:46 38.85962 -94.11098 6689 ft 188 kts 266°
2026-04-29 23:47 38.85736 -94.12752 6357 ft 189 kts 266°
2026-04-29 23:47 38.85508 -94.14416 6017 ft 190 kts 266°
2026-04-29 23:47 38.85278 -94.16086 5681 ft 191 kts 265°
2026-04-29 23:47 38.85048 -94.17764 5350 ft 192 kts 264°
2026-04-29 23:48 38.84813 -94.19470 5070 ft 197 kts 263°
2026-04-29 23:48 38.84572 -94.21216 4798 ft 199 kts 263°
2026-04-29 23:48 38.84330 -94.22954 4511 ft 197 kts 263°
2026-04-29 23:48 38.84102 -94.24690 4225 ft 196 kts 267°
2026-04-29 23:49 38.84319 -94.26360 4005 ft 187 kts 295°
2026-04-29 23:49 38.84766 -94.27889 4000 ft 181 kts 292°
2026-04-29 23:49 38.85177 -94.29404 3993 ft 179 kts 292°
2026-04-29 23:49 38.85592 -94.30903 3992 ft 178 kts 293°
2026-04-29 23:50 38.86006 -94.32395 3992 ft 177 kts 293°
2026-04-29 23:50 38.86421 -94.33888 3991 ft 178 kts 292°
2026-04-29 23:50 38.87243 -94.36858 3992 ft 177 kts 292°
2026-04-29 23:51 38.87658 -94.38347 3992 ft 176 kts 292°
2026-04-29 23:51 38.88067 -94.39827 3993 ft 176 kts 292°
2026-04-29 23:51 38.88478 -94.41308 3993 ft 176 kts 292°
2026-04-29 23:51 38.88755 -94.42309 3994 ft 176 kts 292°
2026-04-29 23:52 38.89160 -94.43776 3994 ft 177 kts 292°
2026-04-29 23:52 38.89571 -94.45266 3994 ft 178 kts 292°
2026-04-29 23:52 38.89984 -94.46760 3773 ft 177 kts 292°
2026-04-29 23:52 38.90397 -94.48252 3772 ft 177 kts 292°
2026-04-29 23:53 38.90809 -94.49746 3774 ft 177 kts 292°
2026-04-29 23:53 38.91219 -94.51236 3773 ft 177 kts 293°
2026-04-29 23:53 38.91631 -94.52729 3775 ft 177 kts 293°
2026-04-29 23:53 38.92040 -94.54216 3775 ft 177 kts 292°
2026-04-29 23:54 38.92450 -94.55706 3774 ft 177 kts 292°
2026-04-29 23:54 38.92854 -94.57177 3774 ft 177 kts 292°
2026-04-29 23:54 38.93269 -94.58667 3770 ft 177 kts 294°
2026-04-29 23:54 38.93957 -94.59939 3786 ft 174 kts 315°
2026-04-29 23:55 38.94764 -94.61102 3794 ft 175 kts 313°
2026-04-29 23:55 38.95556 -94.62283 3803 ft 174 kts 313°
2026-04-29 23:55 38.96351 -94.63464 3814 ft 174 kts 316°
2026-04-29 23:55 38.97377 -94.64214 3821 ft 171 kts 350°
2026-04-29 23:56 38.98543 -94.64118 3996 ft 167 kts 15°
2026-04-29 23:56 38.99628 -94.63711 3834 ft 159 kts 15°
2026-04-29 23:56 39.00659 -94.63343 3557 ft 144 kts 15°
2026-04-29 23:56 39.01558 -94.63019 3344 ft 128 kts 15°
2026-04-29 23:57 39.02392 -94.62719 3131 ft 126 kts 16°
2026-04-29 23:57 39.03236 -94.62417 2918 ft 126 kts 15°
2026-04-29 23:57 39.04076 -94.62115 2711 ft 126 kts 14°
2026-04-29 23:57 39.04915 -94.61802 2519 ft 125 kts 18°
2026-04-29 23:58 39.05726 -94.61399 2361 ft 125 kts 18°
2026-04-29 23:58 39.06550 -94.61041 2224 ft 123 kts 16°
2026-04-29 23:58 39.07371 -94.60772 1991 ft 123 kts 12°
2026-04-29 23:58 39.08159 -94.60520 1756 ft 109 kts 14°
2026-04-29 23:59 39.08875 -94.60292 1532 ft 103 kts 13°
2026-04-29 23:59 39.09566 -94.60082 1326 ft 101 kts 12°
2026-04-29 23:59 39.10247 -94.59882 1138 ft 101 kts 12°
2026-04-29 23:59 39.10954 -94.59684 934 ft 107 kts 12°
2026-04-30 00:00 39.11643 -94.59486 758 ft 92 kts 12°
2026-04-30 00:00 39.12152 -94.59340 749 ft 55 kts 13°
2026-04-30 00:00 39.12372 -94.59275 751 ft 28 kts 12°
2026-04-30 00:00 39.12605 -94.59207 750 ft 35 kts 13°
2026-04-30 00:01 39.12783 -94.59156 749 ft 23 kts 13°
2026-04-30 00:01 39.12877 -94.59063 748 ft 14 kts 84°
2026-04-30 00:01 39.12862 -94.58951 747 ft 12 kts 101°
2026-04-30 00:01 39.12814 -94.58856 749 ft 11 kts 179°
2026-04-30 00:02 39.12718 -94.58869 749 ft 15 kts 186°
2026-04-30 00:02 39.12609 -94.58883 749 ft 16 kts 186°
2026-04-30 00:02 39.12498 -94.58899 749 ft 16 kts 186°
2026-04-30 00:02 39.12388 -94.58924 749 ft 15 kts 205°
2026-04-30 00:03 39.12301 -94.59008 748 ft 16 kts 218°
2026-04-30 00:03 39.12217 -94.59094 749 ft 15 kts 219°
2026-04-30 00:03 39.12138 -94.59175 748 ft 14 kts 218°
2026-04-30 00:03 39.12046 -94.59220 749 ft 14 kts 192°
2026-04-30 00:04 39.11952 -94.59247 748 ft 14 kts 193°
2026-04-30 00:04 39.11862 -94.59273 748 ft 13 kts 193°
2026-04-30 00:04 39.11780 -94.59297 748 ft 12 kts 192°
2026-04-30 00:04 39.11700 -94.59320 748 ft 12 kts 193°
2026-04-30 00:05 39.11615 -94.59345 748 ft 13 kts 193°
2026-04-30 00:05 39.11540 -94.59328 747 ft 11 kts 94°
2026-04-30 00:05 39.11540 -94.59249 749 ft 4 kts 44°
2026-04-30 00:05 39.11559 -94.59247 746 ft 1 kts
2026-04-30 00:06 39.11562 -94.59247 749 ft 0 kts